owner,sensor,date,latitude,longitude,vertical_datum,wind_speed,wind_to_direction,wind_speed_of_gust,qcFlag 
WAVCIS,ioos:station:WAVCIS:CSI03:3,2010-11-01T00:00:00Z,29.4412,-92.0613,10.0,5.766,156.0,,'11111222,11111222,99999999' 
WAVCIS,ioos:station:WAVCIS:CSI03:3,2010-11-01T01:00:00Z,29.4412,-92.0613,10.0,5.952,150.0,,'11111222,11111222,99999999' 
WAVCIS,ioos:station:WAVCIS:CSI03:3,2010-11-01T02:00:00Z,29.4412,-92.0613,10.0,6.947,155.0,,'11111222,11111222,99999999' 
WAVCIS,ioos:station:WAVCIS:CSI03:3,2010-11-01T03:00:00Z,29.4412,-92.0613,10.0,6.179,160.0,,'11111222,11111222,99999999' 
WAVCIS,ioos:station:WAVCIS:CSI03:3,2010-11-01T04:00:00Z,29.4412,-92.0613,10.0,5.212,170.0,,'11111222,11111222,99999999' 
WAVCIS,ioos:station:WAVCIS:CSI03:3,2010-11-01T05:00:00Z,29.4412,-92.0613,10.0,6.668,175.0,,'11111222,11111222,99999999' 
WAVCIS,ioos:station:WAVCIS:CSI03:3,2010-11-01T06:00:00Z,29.4412,-92.0613,10.0,3.429,187.0,,'11111222,11111222,99999999' 
WAVCIS,ioos:station:WAVCIS:CSI03:3,2010-11-01T07:00:00Z,29.4412,-92.0613,10.0,3.229,187.0,,'11111222,11111222,99999999' 
WAVCIS,ioos:station:WAVCIS:CSI03:3,2010-11-01T08:00:00Z,29.4412,-92.0613,10.0,3.929,185.0,,'11111222,11111222,99999999' 
WAVCIS,ioos:station:WAVCIS:CSI03:3,2010-11-01T09:00:00Z,29.4412,-92.0613,10.0,3.506,197.0,,'11111222,11111222,99999999' 
WAVCIS,ioos:station:WAVCIS:CSI03:3,2010-11-01T10:00:00Z,29.4412,-92.0613,10.0,3.404,185.0,,'11111222,11111222,99999999' 
WAVCIS,ioos:station:WAVCIS:CSI03:3,2010-11-01T11:00:00Z,29.4412,-92.0613,10.0,4.466,181.0,,'11111222,11111222,99999999' 
WAVCIS,ioos:station:WAVCIS:CSI03:3,2010-11-01T12:00:00Z,29.4412,-92.0613,10.0,5.938,176.0,,'11111222,11111222,99999999' 
WAVCIS,ioos:station:WAVCIS:CSI03:3,2010-11-01T13:00:00Z,29.4412,-92.0613,10.0,5.573,175.0,,'11111222,11111222,99999999' 
WAVCIS,ioos:station:WAVCIS:CSI03:3,2010-11-01T14:00:00Z,29.4412,-92.0613,10.0,5.562,174.0,,'11111222,11111222,99999999' 
WAVCIS,ioos:station:WAVCIS:CSI03:3,2010-11-01T15:00:00Z,29.4412,-92.0613,10.0,4.832,171.0,,'11111222,11111222,99999999' 
WAVCIS,ioos:station:WAVCIS:CSI03:3,2010-11-01T16:00:00Z,29.4412,-92.0613,10.0,3.7,177.0,,'11111222,11111222,99999999' 
WAVCIS,ioos:station:WAVCIS:CSI03:3,2010-11-01T17:00:00Z,29.4412,-92.0613,10.0,4.657,169.0,,'11111222,11111222,99999999' 
WAVCIS,ioos:station:WAVCIS:CSI03:3,2010-11-01T18:00:00Z,29.4412,-92.0613,10.0,6.229,167.0,,'11111222,11111222,99999999' 
WAVCIS,ioos:station:WAVCIS:CSI03:3,2010-11-01T19:00:00Z,29.4412,-92.0613,10.0,5.79,174.0,,'11111222,11111222,99999999' 
WAVCIS,ioos:station:WAVCIS:CSI03:3,2010-11-01T20:00:00Z,29.4412,-92.0613,10.0,6.092,175.0,,'11111222,11111222,99999999' 
WAVCIS,ioos:station:WAVCIS:CSI03:3,2010-11-01T21:00:00Z,29.4412,-92.0613,10.0,6.546,175.0,,'11111222,11111222,99999999' 
WAVCIS,ioos:station:WAVCIS:CSI03:3,2010-11-01T22:00:00Z,29.4412,-92.0613,10.0,5.742,179.0,,'11111222,11111222,99999999' 
WAVCIS,ioos:station:WAVCIS:CSI03:3,2010-11-01T23:00:00Z,29.4412,-92.0613,10.0,3.903,212.0,,'11111222,11111222,99999999' 
WAVCIS,ioos:station:WAVCIS:CSI03:3,2010-11-02T00:00:00Z,29.4412,-92.0613,10.0,1.12,171.0,,'11111222,11111222,99999999' 
WAVCIS,ioos:station:WAVCIS:CSI03:3,2010-11-02T01:00:00Z,29.4412,-92.0613,10.0,5.837,99.0,,'11111222,11111222,99999999' 
WAVCIS,ioos:station:WAVCIS:CSI03:3,2010-11-02T02:00:00Z,29.4412,-92.0613,10.0,7.35,141.0,,'11111222,11111222,99999999' 
WAVCIS,ioos:station:WAVCIS:CSI03:3,2010-11-02T03:00:00Z,29.4412,-92.0613,10.0,7.29,147.0,,'11111222,11111222,99999999' 
WAVCIS,ioos:station:WAVCIS:CSI03:3,2010-11-02T04:00:00Z,29.4412,-92.0613,10.0,4.777,154.0,,'11111222,11111222,99999999' 
WAVCIS,ioos:station:WAVCIS:CSI03:3,2010-11-02T05:00:00Z,29.4412,-92.0613,10.0,2.148,135.0,,'11111222,11111222,99999999' 
WAVCIS,ioos:station:WAVCIS:CSI03:3,2010-11-02T06:00:00Z,29.4412,-92.0613,10.0,3.4,134.0,,'11111222,11111222,99999999' 
WAVCIS,ioos:station:WAVCIS:CSI03:3,2010-11-02T07:00:00Z,29.4412,-92.0613,10.0,4.369,118.0,,'11111222,11111222,99999999' 
WAVCIS,ioos:station:WAVCIS:CSI03:3,2010-11-02T08:00:00Z,29.4412,-92.0613,10.0,4.168,126.0,,'11111222,11111222,99999999' 
WAVCIS,ioos:station:WAVCIS:CSI03:3,2010-11-02T09:00:00Z,29.4412,-92.0613,10.0,3.036,128.0,,'11111222,11111222,99999999' 
WAVCIS,ioos:station:WAVCIS:CSI03:3,2010-11-02T10:00:00Z,29.4412,-92.0613,10.0,6.165,17.0,,'11111222,11111222,99999999' 
WAVCIS,ioos:station:WAVCIS:CSI03:3,2010-11-02T11:00:00Z,29.4412,-92.0613,10.0,5.14,41.0,,'11111222,11111222,99999999' 
WAVCIS,ioos:station:WAVCIS:CSI03:3,2010-11-02T12:00:00Z,29.4412,-92.0613,10.0,6.483,28.0,,'11111222,11111222,99999999' 
WAVCIS,ioos:station:WAVCIS:CSI03:3,2010-11-02T13:00:00Z,29.4412,-92.0613,10.0,9.31,10.0,,'11111222,11111222,99999999' 
WAVCIS,ioos:station:WAVCIS:CSI03:3,2010-11-02T14:00:00Z,29.4412,-92.0613,10.0,7.43,340.0,,'11111222,11111222,99999999' 
WAVCIS,ioos:station:WAVCIS:CSI03:3,2010-11-02T15:00:00Z,29.4412,-92.0613,10.0,5.269,0.0,,'11111222,11111222,99999999' 
WAVCIS,ioos:station:WAVCIS:CSI03:3,2010-11-02T16:00:00Z,29.4412,-92.0613,10.0,4.535,49.0,,'11111222,11111222,99999999' 
WAVCIS,ioos:station:WAVCIS:CSI03:3,2010-11-02T17:00:00Z,29.4412,-92.0613,10.0,2.795,15.0,,'11111222,11111222,99999999' 
WAVCIS,ioos:station:WAVCIS:CSI03:3,2010-11-02T18:00:00Z,29.4412,-92.0613,10.0,2.005,351.0,,'11111222,11111222,99999999' 
WAVCIS,ioos:station:WAVCIS:CSI03:3,2010-11-02T19:00:00Z,29.4412,-92.0613,10.0,1.394,177.0,,'11111222,11111222,99999999' 
WAVCIS,ioos:station:WAVCIS:CSI03:3,2010-11-02T20:00:00Z,29.4412,-92.0613,10.0,5.646,142.0,,'11111222,11111222,99999999' 
WAVCIS,ioos:station:WAVCIS:CSI03:3,2010-11-02T21:00:00Z,29.4412,-92.0613,10.0,2.924,178.0,,'11111222,11111222,99999999' 
WAVCIS,ioos:station:WAVCIS:CSI03:3,2010-11-02T22:00:00Z,29.4412,-92.0613,10.0,1.629,278.0,,'11111222,11111222,99999999' 
WAVCIS,ioos:station:WAVCIS:CSI03:3,2010-11-02T23:00:00Z,29.4412,-92.0613,10.0,3.051,249.0,,'11111222,11111222,99999999' 
WAVCIS,ioos:station:WAVCIS:CSI03:3,2010-11-03T00:00:00Z,29.4412,-92.0613,10.0,2.168,246.0,,'11111222,11111222,99999999' 
WAVCIS,ioos:station:WAVCIS:CSI03:3,2010-11-03T01:00:00Z,29.4412,-92.0613,10.0,4.367,269.0,,'11111222,11111222,99999999' 
WAVCIS,ioos:station:WAVCIS:CSI03:3,2010-11-03T02:00:00Z,29.4412,-92.0613,10.0,1.399,269.0,,'11111222,11111222,99999999' 
WAVCIS,ioos:station:WAVCIS:CSI03:3,2010-11-03T03:00:00Z,29.4412,-92.0613,10.0,2.548,270.0,,'11111222,11111222,99999999' 
WAVCIS,ioos:station:WAVCIS:CSI03:3,2010-11-03T04:00:00Z,29.4412,-92.0613,10.0,5.369,321.0,,'11111222,11111222,99999999' 
WAVCIS,ioos:station:WAVCIS:CSI03:3,2010-11-03T05:00:00Z,29.4412,-92.0613,10.0,5.994,352.0,,'11111222,11111222,99999999' 
WAVCIS,ioos:station:WAVCIS:CSI03:3,2010-11-03T06:00:00Z,29.4412,-92.0613,10.0,4.802,1.0,,'11111222,11111222,99999999' 
WAVCIS,ioos:station:WAVCIS:CSI03:3,2010-11-03T07:00:00Z,29.4412,-92.0613,10.0,3.687,5.0,,'11111222,11111222,99999999' 
WAVCIS,ioos:station:WAVCIS:CSI03:3,2010-11-03T08:00:00Z,29.4412,-92.0613,10.0,3.215,6.0,,'11111222,11111222,99999999' 
WAVCIS,ioos:station:WAVCIS:CSI03:3,2010-11-03T09:00:00Z,29.4412,-92.0613,10.0,3.478,336.0,,'11111222,11111222,99999999' 
WAVCIS,ioos:station:WAVCIS:CSI03:3,2010-11-03T10:00:00Z,29.4412,-92.0613,10.0,4.067,328.0,,'11111222,11111222,99999999' 
WAVCIS,ioos:station:WAVCIS:CSI03:3,2010-11-03T11:00:00Z,29.4412,-92.0613,10.0,3.684,317.0,,'11111222,11111222,99999999' 
WAVCIS,ioos:station:WAVCIS:CSI03:3,2010-11-03T12:00:00Z,29.4412,-92.0613,10.0,3.134,347.0,,'11111222,11111222,99999999' 
WAVCIS,ioos:station:WAVCIS:CSI03:3,2010-11-03T13:00:00Z,29.4412,-92.0613,10.0,3.39,5.0,,'11111222,11111222,99999999' 
WAVCIS,ioos:station:WAVCIS:CSI03:3,2010-11-03T14:00:00Z,29.4412,-92.0613,10.0,3.347,32.0,,'11111222,11111222,99999999' 
WAVCIS,ioos:station:WAVCIS:CSI03:3,2010-11-03T15:00:00Z,29.4412,-92.0613,10.0,3.344,8.0,,'11111222,11111222,99999999' 
WAVCIS,ioos:station:WAVCIS:CSI03:3,2010-11-03T16:00:00Z,29.4412,-92.0613,10.0,3.209,356.0,,'11111222,11111222,99999999' 
WAVCIS,ioos:station:WAVCIS:CSI03:3,2010-11-03T17:00:00Z,29.4412,-92.0613,10.0,2.815,4.0,,'11111222,11111222,99999999' 
WAVCIS,ioos:station:WAVCIS:CSI03:3,2010-11-03T18:00:00Z,29.4412,-92.0613,10.0,3.183,30.0,,'11111222,11111222,99999999' 
WAVCIS,ioos:station:WAVCIS:CSI03:3,2010-11-03T19:00:00Z,29.4412,-92.0613,10.0,4.278,13.0,,'11111222,11111222,99999999' 
WAVCIS,ioos:station:WAVCIS:CSI03:3,2010-11-03T20:00:00Z,29.4412,-92.0613,10.0,2.861,39.0,,'11111222,11111222,99999999' 
WAVCIS,ioos:station:WAVCIS:CSI03:3,2010-11-03T21:00:00Z,29.4412,-92.0613,10.0,3.667,21.0,,'11111222,11111222,99999999' 
WAVCIS,ioos:station:WAVCIS:CSI03:3,2010-11-03T22:00:00Z,29.4412,-92.0613,10.0,3.827,17.0,,'11111222,11111222,99999999' 
WAVCIS,ioos:station:WAVCIS:CSI03:3,2010-11-03T23:00:00Z,29.4412,-92.0613,10.0,3.112,3.0,,'11111222,11111222,99999999' 
WAVCIS,ioos:station:WAVCIS:CSI03:3,2010-11-04T00:00:00Z,29.4412,-92.0613,10.0,2.87,45.0,,'11111222,11111222,99999999' 
WAVCIS,ioos:station:WAVCIS:CSI03:3,2010-11-04T01:00:00Z,29.4412,-92.0613,10.0,3.534,0.0,,'11111222,11144222,99999999' 
WAVCIS,ioos:station:WAVCIS:CSI03:3,2010-11-04T02:00:00Z,29.4412,-92.0613,10.0,5.489,19.0,,'11111222,11111222,99999999' 
WAVCIS,ioos:station:WAVCIS:CSI03:3,2010-11-04T03:00:00Z,29.4412,-92.0613,10.0,5.766,9.0,,'11111222,11111222,99999999' 
WAVCIS,ioos:station:WAVCIS:CSI03:3,2010-11-04T04:00:00Z,29.4412,-92.0613,10.0,5.749,3.0,,'11111222,11111222,99999999' 
WAVCIS,ioos:station:WAVCIS:CSI03:3,2010-11-04T05:00:00Z,29.4412,-92.0613,10.0,6.937,20.0,,'11111222,11111222,99999999' 
WAVCIS,ioos:station:WAVCIS:CSI03:3,2010-11-04T06:00:00Z,29.4412,-92.0613,10.0,8.4,19.0,,'11111222,11111222,99999999' 
WAVCIS,ioos:station:WAVCIS:CSI03:3,2010-11-04T07:00:00Z,29.4412,-92.0613,10.0,9.71,13.0,,'11111222,11111222,99999999' 
WAVCIS,ioos:station:WAVCIS:CSI03:3,2010-11-04T08:00:00Z,29.4412,-92.0613,10.0,10.51,16.0,,'11111222,11111222,99999999' 
WAVCIS,ioos:station:WAVCIS:CSI03:3,2010-11-04T09:00:00Z,29.4412,-92.0613,10.0,10.49,16.0,,'11111222,11111222,99999999' 
WAVCIS,ioos:station:WAVCIS:CSI03:3,2010-11-04T10:00:00Z,29.4412,-92.0613,10.0,12.37,16.0,,'11111222,11111222,99999999' 
WAVCIS,ioos:station:WAVCIS:CSI03:3,2010-11-04T11:00:00Z,29.4412,-92.0613,10.0,12.15,12.0,,'11111222,11111222,99999999' 
WAVCIS,ioos:station:WAVCIS:CSI03:3,2010-11-04T12:00:00Z,29.4412,-92.0613,10.0,12.07,15.0,,'11111222,11111222,99999999' 
WAVCIS,ioos:station:WAVCIS:CSI03:3,2010-11-04T13:00:00Z,29.4412,-92.0613,10.0,12.38,18.0,,'11111222,11111222,99999999' 
WAVCIS,ioos:station:WAVCIS:CSI03:3,2010-11-04T14:00:00Z,29.4412,-92.0613,10.0,11.41,19.0,,'11111222,11111222,99999999' 
WAVCIS,ioos:station:WAVCIS:CSI03:3,2010-11-04T15:00:00Z,29.4412,-92.0613,10.0,11.01,22.0,,'11111222,11111222,99999999' 
WAVCIS,ioos:station:WAVCIS:CSI03:3,2010-11-04T16:00:00Z,29.4412,-92.0613,10.0,9.66,21.0,,'11111222,11111222,99999999' 
WAVCIS,ioos:station:WAVCIS:CSI03:3,2010-11-04T17:00:00Z,29.4412,-92.0613,10.0,9.6,15.0,,'11111222,11111222,99999999' 
WAVCIS,ioos:station:WAVCIS:CSI03:3,2010-11-04T18:00:00Z,29.4412,-92.0613,10.0,10.64,9.0,,'11111222,11111222,99999999' 
WAVCIS,ioos:station:WAVCIS:CSI03:3,2010-11-04T19:00:00Z,29.4412,-92.0613,10.0,9.2,4.0,,'11111222,11111222,99999999' 
WAVCIS,ioos:station:WAVCIS:CSI03:3,2010-11-04T20:00:00Z,29.4412,-92.0613,10.0,8.79,355.0,,'11111222,11111222,99999999' 
WAVCIS,ioos:station:WAVCIS:CSI03:3,2010-11-04T21:00:00Z,29.4412,-92.0613,10.0,7.8,357.0,,'11111222,11111222,99999999' 
WAVCIS,ioos:station:WAVCIS:CSI03:3,2010-11-04T22:00:00Z,29.4412,-92.0613,10.0,8.88,353.0,,'11111222,11111222,99999999' 
WAVCIS,ioos:station:WAVCIS:CSI03:3,2010-11-04T23:00:00Z,29.4412,-92.0613,10.0,9.34,353.0,,'11111222,11111222,99999999' 
WAVCIS,ioos:station:WAVCIS:CSI03:3,2010-11-05T00:00:00Z,29.4412,-92.0613,10.0,6.609,1.0,,'11111222,11111222,99999999' 
WAVCIS,ioos:station:WAVCIS:CSI03:3,2010-11-05T01:00:00Z,29.4412,-92.0613,10.0,6.146,357.0,,'11111222,11111222,99999999' 
WAVCIS,ioos:station:WAVCIS:CSI03:3,2010-11-05T02:00:00Z,29.4412,-92.0613,10.0,7.62,355.0,,'11111222,11111222,99999999' 
WAVCIS,ioos:station:WAVCIS:CSI03:3,2010-11-05T03:00:00Z,29.4412,-92.0613,10.0,8.9,351.0,,'11111222,11111222,99999999' 
WAVCIS,ioos:station:WAVCIS:CSI03:3,2010-11-05T04:00:00Z,29.4412,-92.0613,10.0,10.5,350.0,,'11111222,11111222,99999999' 
WAVCIS,ioos:station:WAVCIS:CSI03:3,2010-11-05T05:00:00Z,29.4412,-92.0613,10.0,9.31,348.0,,'11111222,11111222,99999999' 
WAVCIS,ioos:station:WAVCIS:CSI03:3,2010-11-05T06:00:00Z,29.4412,-92.0613,10.0,9.89,346.0,,'11111222,11111222,99999999' 
WAVCIS,ioos:station:WAVCIS:CSI03:3,2010-11-05T07:00:00Z,29.4412,-92.0613,10.0,9.51,347.0,,'11111222,11111222,99999999' 
WAVCIS,ioos:station:WAVCIS:CSI03:3,2010-11-05T08:00:00Z,29.4412,-92.0613,10.0,9.3,351.0,,'11111222,11111222,99999999' 
WAVCIS,ioos:station:WAVCIS:CSI03:3,2010-11-05T09:00:00Z,29.4412,-92.0613,10.0,8.21,355.0,,'11111222,11111222,99999999' 
WAVCIS,ioos:station:WAVCIS:CSI03:3,2010-11-05T10:00:00Z,29.4412,-92.0613,10.0,9.54,343.0,,'11111222,11111222,99999999' 
WAVCIS,ioos:station:WAVCIS:CSI03:3,2010-11-05T11:00:00Z,29.4412,-92.0613,10.0,10.3,335.0,,'11111222,11111222,99999999' 
WAVCIS,ioos:station:WAVCIS:CSI03:3,2010-11-05T12:00:00Z,29.4412,-92.0613,10.0,9.58,348.0,,'11111222,11111222,99999999' 
WAVCIS,ioos:station:WAVCIS:CSI03:3,2010-11-05T13:00:00Z,29.4412,-92.0613,10.0,7.08,1.0,,'11111222,11111222,99999999' 
WAVCIS,ioos:station:WAVCIS:CSI03:3,2010-11-05T14:00:00Z,29.4412,-92.0613,10.0,6.829,2.0,,'11111222,11111222,99999999' 
WAVCIS,ioos:station:WAVCIS:CSI03:3,2010-11-05T15:00:00Z,29.4412,-92.0613,10.0,8.06,13.0,,'11111222,11111222,99999999' 
WAVCIS,ioos:station:WAVCIS:CSI03:3,2010-11-05T16:00:00Z,29.4412,-92.0613,10.0,6.784,16.0,,'11111222,11111222,99999999' 
WAVCIS,ioos:station:WAVCIS:CSI03:3,2010-11-05T17:00:00Z,29.4412,-92.0613,10.0,4.647,5.0,,'11111222,11111222,99999999' 
WAVCIS,ioos:station:WAVCIS:CSI03:3,2010-11-05T18:00:00Z,29.4412,-92.0613,10.0,5.085,2.0,,'11111222,11111222,99999999' 
WAVCIS,ioos:station:WAVCIS:CSI03:3,2010-11-05T19:00:00Z,29.4412,-92.0613,10.0,6.151,352.0,,'11111222,11111222,99999999' 
WAVCIS,ioos:station:WAVCIS:CSI03:3,2010-11-05T20:00:00Z,29.4412,-92.0613,10.0,5.896,357.0,,'11111222,11111222,99999999' 
WAVCIS,ioos:station:WAVCIS:CSI03:3,2010-11-05T21:00:00Z,29.4412,-92.0613,10.0,5.913,355.0,,'11111222,11111222,99999999' 
WAVCIS,ioos:station:WAVCIS:CSI03:3,2010-11-05T22:00:00Z,29.4412,-92.0613,10.0,6.852,354.0,,'11111222,11111222,99999999' 
WAVCIS,ioos:station:WAVCIS:CSI03:3,2010-11-05T23:00:00Z,29.4412,-92.0613,10.0,5.311,359.0,,'11111222,11111222,99999999' 
WAVCIS,ioos:station:WAVCIS:CSI03:3,2010-11-06T00:00:00Z,29.4412,-92.0613,10.0,5.233,14.0,,'11111222,11111222,99999999' 
WAVCIS,ioos:station:WAVCIS:CSI03:3,2010-11-06T01:00:00Z,29.4412,-92.0613,10.0,5.547,22.0,,'11111222,11111222,99999999' 
WAVCIS,ioos:station:WAVCIS:CSI03:3,2010-11-06T02:00:00Z,29.4412,-92.0613,10.0,5.891,17.0,,'11111222,11111222,99999999' 
WAVCIS,ioos:station:WAVCIS:CSI03:3,2010-11-06T03:00:00Z,29.4412,-92.0613,10.0,5.611,17.0,,'11111222,11111222,99999999' 
WAVCIS,ioos:station:WAVCIS:CSI03:3,2010-11-06T04:00:00Z,29.4412,-92.0613,10.0,5.429,24.0,,'11111222,11111222,99999999' 
WAVCIS,ioos:station:WAVCIS:CSI03:3,2010-11-06T05:00:00Z,29.4412,-92.0613,10.0,7.53,59.0,,'11111222,11111222,99999999' 
WAVCIS,ioos:station:WAVCIS:CSI03:3,2010-11-06T06:00:00Z,29.4412,-92.0613,10.0,7.18,62.0,,'11111222,11111222,99999999' 
WAVCIS,ioos:station:WAVCIS:CSI03:3,2010-11-06T07:00:00Z,29.4412,-92.0613,10.0,6.57,62.0,,'11111222,11111222,99999999' 
WAVCIS,ioos:station:WAVCIS:CSI03:3,2010-11-06T08:00:00Z,29.4412,-92.0613,10.0,6.397,64.0,,'11111222,11111222,99999999' 
WAVCIS,ioos:station:WAVCIS:CSI03:3,2010-11-06T09:00:00Z,29.4412,-92.0613,10.0,5.722,66.0,,'11111222,11111222,99999999' 
WAVCIS,ioos:station:WAVCIS:CSI03:3,2010-11-06T10:00:00Z,29.4412,-92.0613,10.0,5.253,69.0,,'11111222,11111222,99999999' 
WAVCIS,ioos:station:WAVCIS:CSI03:3,2010-11-06T11:00:00Z,29.4412,-92.0613,10.0,4.908,76.0,,'11111222,11111222,99999999' 
WAVCIS,ioos:station:WAVCIS:CSI03:3,2010-11-06T12:00:00Z,29.4412,-92.0613,10.0,4.509,74.0,,'11111222,11111222,99999999' 
WAVCIS,ioos:station:WAVCIS:CSI03:3,2010-11-06T13:00:00Z,29.4412,-92.0613,10.0,4.59,65.0,,'11111222,11111222,99999999' 
WAVCIS,ioos:station:WAVCIS:CSI03:3,2010-11-06T14:00:00Z,29.4412,-92.0613,10.0,4.573,73.0,,'11111222,11111222,99999999' 
WAVCIS,ioos:station:WAVCIS:CSI03:3,2010-11-06T15:00:00Z,29.4412,-92.0613,10.0,4.46,73.0,,'11111222,11111222,99999999' 
WAVCIS,ioos:station:WAVCIS:CSI03:3,2010-11-06T16:00:00Z,29.4412,-92.0613,10.0,3.703,60.0,,'11111222,11111222,99999999' 
WAVCIS,ioos:station:WAVCIS:CSI03:3,2010-11-06T17:00:00Z,29.4412,-92.0613,10.0,5.115,70.0,,'11111222,11111222,99999999' 
WAVCIS,ioos:station:WAVCIS:CSI03:3,2010-11-06T18:00:00Z,29.4412,-92.0613,10.0,4.884,88.0,,'11111222,11111222,99999999' 
WAVCIS,ioos:station:WAVCIS:CSI03:3,2010-11-06T19:00:00Z,29.4412,-92.0613,10.0,1.954,29.0,,'11111222,11111222,99999999' 
WAVCIS,ioos:station:WAVCIS:CSI03:3,2010-11-06T20:00:00Z,29.4412,-92.0613,10.0,1.299,26.0,,'11111222,11111222,99999999' 
WAVCIS,ioos:station:WAVCIS:CSI03:3,2010-11-06T21:00:00Z,29.4412,-92.0613,10.0,0.786,51.0,,'11111222,11111222,99999999' 
WAVCIS,ioos:station:WAVCIS:CSI03:3,2010-11-06T22:00:00Z,29.4412,-92.0613,10.0,0.301,169.0,,'11111222,11111222,99999999' 
WAVCIS,ioos:station:WAVCIS:CSI03:3,2010-11-06T23:00:00Z,29.4412,-92.0613,10.0,1.514,169.0,,'11111222,11111222,99999999' 
WAVCIS,ioos:station:WAVCIS:CSI03:3,2010-11-07T00:00:00Z,29.4412,-92.0613,10.0,0.507,180.0,,'11111222,11111222,99999999' 
WAVCIS,ioos:station:WAVCIS:CSI03:3,2010-11-07T01:00:00Z,29.4412,-92.0613,10.0,0.135,97.0,,'11111222,11111222,99999999' 
WAVCIS,ioos:station:WAVCIS:CSI03:3,2010-11-07T02:00:00Z,29.4412,-92.0613,10.0,1.517,0.0,,'11111222,11111222,99999999' 
WAVCIS,ioos:station:WAVCIS:CSI03:3,2010-11-07T03:00:00Z,29.4412,-92.0613,10.0,2.746,355.0,,'11111222,11111222,99999999' 
WAVCIS,ioos:station:WAVCIS:CSI03:3,2010-11-07T04:00:00Z,29.4412,-92.0613,10.0,2.522,8.0,,'11111222,11111222,99999999' 
WAVCIS,ioos:station:WAVCIS:CSI03:3,2010-11-07T05:00:00Z,29.4412,-92.0613,10.0,2.944,20.0,,'11111222,11111222,99999999' 
WAVCIS,ioos:station:WAVCIS:CSI03:3,2010-11-07T06:00:00Z,29.4412,-92.0613,10.0,4.259,54.0,,'11111222,11111222,99999999' 
WAVCIS,ioos:station:WAVCIS:CSI03:3,2010-11-07T07:00:00Z,29.4412,-92.0613,10.0,6.193,57.0,,'11111222,11111222,99999999' 
WAVCIS,ioos:station:WAVCIS:CSI03:3,2010-11-07T08:00:00Z,29.4412,-92.0613,10.0,7.6,66.0,,'11111222,11111222,99999999' 
WAVCIS,ioos:station:WAVCIS:CSI03:3,2010-11-07T09:00:00Z,29.4412,-92.0613,10.0,7.08,71.0,,'11111222,11111222,99999999' 
WAVCIS,ioos:station:WAVCIS:CSI03:3,2010-11-07T10:00:00Z,29.4412,-92.0613,10.0,6.389,75.0,,'11111222,11111222,99999999' 
WAVCIS,ioos:station:WAVCIS:CSI03:3,2010-11-07T11:00:00Z,29.4412,-92.0613,10.0,6.878,67.0,,'11111222,11111222,99999999' 
WAVCIS,ioos:station:WAVCIS:CSI03:3,2010-11-07T12:00:00Z,29.4412,-92.0613,10.0,6.94,80.0,,'11111222,11111222,99999999' 
WAVCIS,ioos:station:WAVCIS:CSI03:3,2010-11-07T13:00:00Z,29.4412,-92.0613,10.0,7.04,88.0,,'11111222,11111222,99999999' 
WAVCIS,ioos:station:WAVCIS:CSI03:3,2010-11-07T14:00:00Z,29.4412,-92.0613,10.0,8.32,86.0,,'11111222,11111222,99999999' 
WAVCIS,ioos:station:WAVCIS:CSI03:3,2010-11-07T15:00:00Z,29.4412,-92.0613,10.0,7.45,102.0,,'11111222,11111222,99999999' 
WAVCIS,ioos:station:WAVCIS:CSI03:3,2010-11-07T16:00:00Z,29.4412,-92.0613,10.0,6.571,105.0,,'11111222,11111222,99999999' 
WAVCIS,ioos:station:WAVCIS:CSI03:3,2010-11-07T17:00:00Z,29.4412,-92.0613,10.0,6.285,98.0,,'11111222,11111222,99999999' 
WAVCIS,ioos:station:WAVCIS:CSI03:3,2010-11-07T18:00:00Z,29.4412,-92.0613,10.0,5.2,115.0,,'11111222,11111222,99999999' 
WAVCIS,ioos:station:WAVCIS:CSI03:3,2010-11-07T19:00:00Z,29.4412,-92.0613,10.0,4.034,131.0,,'11111222,11111222,99999999' 
WAVCIS,ioos:station:WAVCIS:CSI03:3,2010-11-07T20:00:00Z,29.4412,-92.0613,10.0,2.933,135.0,,'11111222,11111222,99999999' 
WAVCIS,ioos:station:WAVCIS:CSI03:3,2010-11-07T21:00:00Z,29.4412,-92.0613,10.0,1.177,86.0,,'11111222,11111222,99999999' 
WAVCIS,ioos:station:WAVCIS:CSI03:3,2010-11-07T22:00:00Z,29.4412,-92.0613,10.0,0.856,116.0,,'11111222,11111222,99999999' 
WAVCIS,ioos:station:WAVCIS:CSI03:3,2010-11-07T23:00:00Z,29.4412,-92.0613,10.0,1.676,174.0,,'11111222,11111222,99999999' 
WAVCIS,ioos:station:WAVCIS:CSI03:3,2010-11-08T00:00:00Z,29.4412,-92.0613,10.0,1.586,155.0,,'11111222,11111222,99999999' 
WAVCIS,ioos:station:WAVCIS:CSI03:3,2010-11-08T01:00:00Z,29.4412,-92.0613,10.0,1.611,109.0,,'11111222,11111222,99999999' 
WAVCIS,ioos:station:WAVCIS:CSI03:3,2010-11-08T02:00:00Z,29.4412,-92.0613,10.0,2.136,81.0,,'11111222,11111222,99999999' 
WAVCIS,ioos:station:WAVCIS:CSI03:3,2010-11-08T03:00:00Z,29.4412,-92.0613,10.0,3.521,102.0,,'11111222,11111222,99999999' 
WAVCIS,ioos:station:WAVCIS:CSI03:3,2010-11-08T04:00:00Z,29.4412,-92.0613,10.0,5.359,115.0,,'11111222,11111222,99999999' 
WAVCIS,ioos:station:WAVCIS:CSI03:3,2010-11-08T05:00:00Z,29.4412,-92.0613,10.0,4.85,127.0,,'11111222,11111222,99999999' 
WAVCIS,ioos:station:WAVCIS:CSI03:3,2010-11-08T06:00:00Z,29.4412,-92.0613,10.0,5.235,148.0,,'11111222,11111222,99999999' 
WAVCIS,ioos:station:WAVCIS:CSI03:3,2010-11-08T07:00:00Z,29.4412,-92.0613,10.0,4.365,146.0,,'11111222,11111222,99999999' 
WAVCIS,ioos:station:WAVCIS:CSI03:3,2010-11-08T08:00:00Z,29.4412,-92.0613,10.0,4.399,133.0,,'11111222,11111222,99999999' 
WAVCIS,ioos:station:WAVCIS:CSI03:3,2010-11-08T09:00:00Z,29.4412,-92.0613,10.0,3.978,128.0,,'11111222,11111222,99999999' 
WAVCIS,ioos:station:WAVCIS:CSI03:3,2010-11-08T10:00:00Z,29.4412,-92.0613,10.0,4.281,124.0,,'11111222,11111222,99999999' 
WAVCIS,ioos:station:WAVCIS:CSI03:3,2010-11-08T11:00:00Z,29.4412,-92.0613,10.0,3.903,125.0,,'11111222,11111222,99999999' 
WAVCIS,ioos:station:WAVCIS:CSI03:3,2010-11-08T12:00:00Z,29.4412,-92.0613,10.0,3.333,109.0,,'11111222,11111222,99999999' 
WAVCIS,ioos:station:WAVCIS:CSI03:3,2010-11-08T13:00:00Z,29.4412,-92.0613,10.0,3.193,100.0,,'11111222,11111222,99999999' 
WAVCIS,ioos:station:WAVCIS:CSI03:3,2010-11-08T14:00:00Z,29.4412,-92.0613,10.0,4.31,88.0,,'11111222,11111222,99999999' 
WAVCIS,ioos:station:WAVCIS:CSI03:3,2010-11-08T15:00:00Z,29.4412,-92.0613,10.0,3.621,81.0,,'11111222,11111222,99999999' 
WAVCIS,ioos:station:WAVCIS:CSI03:3,2010-11-08T16:00:00Z,29.4412,-92.0613,10.0,4.496,100.0,,'11111222,11111222,99999999' 
WAVCIS,ioos:station:WAVCIS:CSI03:3,2010-11-08T17:00:00Z,29.4412,-92.0613,10.0,4.507,103.0,,'11111222,11111222,99999999' 
WAVCIS,ioos:station:WAVCIS:CSI03:3,2010-11-08T18:00:00Z,29.4412,-92.0613,10.0,4.133,111.0,,'11111222,11111222,99999999' 
WAVCIS,ioos:station:WAVCIS:CSI03:3,2010-11-08T19:00:00Z,29.4412,-92.0613,10.0,3.825,113.0,,'11111222,11111222,99999999' 
WAVCIS,ioos:station:WAVCIS:CSI03:3,2010-11-08T20:00:00Z,29.4412,-92.0613,10.0,3.338,123.0,,'11111222,11111222,99999999' 
WAVCIS,ioos:station:WAVCIS:CSI03:3,2010-11-08T21:00:00Z,29.4412,-92.0613,10.0,3.103,118.0,,'11111222,11111222,99999999' 
WAVCIS,ioos:station:WAVCIS:CSI03:3,2010-11-08T22:00:00Z,29.4412,-92.0613,10.0,2.424,122.0,,'11111222,11111222,99999999' 
WAVCIS,ioos:station:WAVCIS:CSI03:3,2010-11-08T23:00:00Z,29.4412,-92.0613,10.0,3.045,143.0,,'11111222,11111222,99999999' 
WAVCIS,ioos:station:WAVCIS:CSI03:3,2010-11-09T00:00:00Z,29.4412,-92.0613,10.0,4.338,154.0,,'11111222,11111222,99999999' 
WAVCIS,ioos:station:WAVCIS:CSI03:3,2010-11-09T01:00:00Z,29.4412,-92.0613,10.0,3.195,153.0,,'11111222,11111222,99999999' 
WAVCIS,ioos:station:WAVCIS:CSI03:3,2010-11-09T02:00:00Z,29.4412,-92.0613,10.0,2.936,150.0,,'11111222,11111222,99999999' 
WAVCIS,ioos:station:WAVCIS:CSI03:3,2010-11-09T03:00:00Z,29.4412,-92.0613,10.0,2.689,157.0,,'11111222,11111222,99999999' 
WAVCIS,ioos:station:WAVCIS:CSI03:3,2010-11-09T04:00:00Z,29.4412,-92.0613,10.0,4.361,156.0,,'11111222,11111222,99999999' 
WAVCIS,ioos:station:WAVCIS:CSI03:3,2010-11-09T05:00:00Z,29.4412,-92.0613,10.0,3.027,144.0,,'11111222,11111222,99999999' 